STARLINK-34305, 65375

Orbit data source: Space-Track

STARLINK-34305, 65375 is a payload satellite owned by SpaceX/Seattle (US) in LEO that was launched on Thu, 28 Aug 2025 UTC via an FALCON 9 launch vehicle from the Air Force Eastern Test Range (AFETR). Payload-class satellites include a variety of spacecraft equipped with specific instruments for various scientific and technological missions. These include communications satellites like Starlink; space stations such as the ISS; scientific satellites like the Hubble; Earth observation satellites from companies like Planet Labs, Umbra, and HawkEye 360; GPS; miniature CubeSats for education and research; and military/defense satellites.

Loading next visibility...
Identifier
65375, 2025-190AA
Orbit
LEO
Country
Flag of USUS
Related business
Manufacturer
SpaceX/Seattle
Mission
Operational Commercial Communications
Bus & Motor
STARLINK V2MO, Unknown motor
Mass
575 kg wet, ~530 kg dry
Launch date (UTC)
2025-08-28 (10 months ago)
Launch vehicle
FALCON 9
Launch site
Air Force Eastern Test Range (AFETR)
Object type
Payload
Rocket body
Debris
Shape & HBR
Box + 2 Pan, 17.7 m
Radar Cross Section
36.964 m², Large (>1 m²)

Expand to show TLE details & history
Last TLE update: 22 hours ago

TLE from 22 hours ago
0 STARLINK-34305
1 65375U 25190AA  26170.94867920  .00021046  00000-0  72032-3 0  9994
2 65375  53.1594  53.0350 0001082  88.0459 272.0666 15.30215879 45410
Epoch: 2026-06-19T22:46Z
TLE epoch observation values (Epoch: 2026-06-19T22:46:05.882Z)
Latitude
-0.00002°
Longitude
163.34015°
Altitude
476.041 km
Speed
7.629 km/s
True Right ascension
03h 32m 08s
True Declination
0° 00' 00"
Sunlit
Object was in daylight at epoch
Visualization orbit readout
Latitude
Unknown
Longitude
Unknown
Altitude
Unknown
Speed
Unknown
Apparent Right ascension
Unknown
Apparent Declination
Unknown
Sunlit
N/A
Visualization observer readout
Local Sidereal Time
07:18:34
Azimuth
Unknown
Elevation
Unknown
Doppler factor
Unknown
Orbital elements
Apogee altitude
476.166 km
Perigee altitude
474.683 km
Semi-major axis
6,853.561 km
Eccentricity
0.00011
Inclination
53.1594°
RAAN
53.035°
Arg. of periapsis
88.0459°
True anomaly
272.05421°
Mean anomaly
272.0666°
Eccentric anomaly
272.0604°
Mean motion
3.82533 °/min
Orbital period
94.11 mins
BSTAR
0.00072032
Loading maneuver chart data...
Computing Atmospheric mass density...
Loading historical data...
Loading historical data...
Loading historical data...
Loading historical data...
Loading historical data...
Loading historical data...
Loading historical data...

Documentation

Showing up to 5 results
|